Tracking 19176 objects as of 26-May-2018
HD Live streaming from Space Station
objects crossing your sky now

COSMOS 1707

Track COSMOS 1707 now!
10-day predictions
COSMOS 1707 is classified as:


NORAD ID: 16326
Int'l Code: 1985-113A
Perigee: 524.9 km
Apogee: 539.2 km
Inclination: 82.5 °
Period: 95.1 minutes
Semi major axis: 6903 km
RCS: 8.1597 m2 (large)
Launch date: December 12, 1985
Source: Commonwealth of Independent States (former USSR) (CIS)
Launch site: PLESETSK MISSILE AND SPACE COMPLEX (PKMTR)
aabbcc
Your satellite tracking list
Your tracking list is empty




NASA's NSSDC Master Catalog

Two Line Element Set (TLE):
1 16326U 85113A   18146.22559497  .00000184  00000-0  84632-5 0  9990
2 16326  82.5134 231.2492 0010409 188.5289 171.5767 15.13708288769235
Source of the keplerian elements: AFSPC